When you browse on this site, cookies collect data to enhance your experience and personalize the content and advertising you see.
Visit our Privacy Policy to learn more. By continuing to use the site, you agree to this use of cookies and data.
  • în România
  • Lista ţărilor
  • Pe 7 zile
  • Temperatura apei
  • Meteo pe hartă
  • Widget-uri
  • user-avatar
    Intrare

    Meteo pe oră la Kofu

    Astăzi, 29 Ianuarie, Miercuri

    Timp Temperatura Precipitaţii Vânt Presiune Umiditate
    00:00 +3°C° 2.6 mm 3 m/s 664 mmHg 95%
    01:00 +3°C° 1.1 mm 3 m/s 663 mmHg 95%
    02:00 +3°C° 1.1 mm 3 m/s 663 mmHg 95%
    03:00 +4°C° 0 mm 2 m/s 662 mmHg 95%
    04:00 +4°C° 0.1 mm 2 m/s 662 mmHg 95%
    05:00 +4°C° 0.1 mm 2 m/s 662 mmHg 94%
    06:00 +5°C° 0.1 mm 1 m/s 662 mmHg 94%
    07:00 +5°C° 0.1 mm 1 m/s 662 mmHg 93%
    08:00 +6°C° 0.1 mm 1 m/s 662 mmHg 92%
    09:00 +8°C° 0 mm 1 m/s 663 mmHg 86%
    10:00 +9°C° 0 mm 1 m/s 663 mmHg 80%
    11:00 +11°C° 0 mm 1 m/s 663 mmHg 74%
    12:00 +12°C° 0 mm 1 m/s 663 mmHg 67%
    13:00 +12°C° 0 mm 1 m/s 663 mmHg 66%
    14:00 +12°C° 0 mm 1 m/s 662 mmHg 65%
    15:00 +11°C° 0 mm 1 m/s 662 mmHg 64%
    16:00 +10°C° 0 mm 1 m/s 662 mmHg 72%
    17:00 +8°C° 0 mm 1 m/s 661 mmHg 79%
    18:00 +6°C° 0 mm 1 m/s 661 mmHg 87%
    19:00 +4°C° 0 mm 2 m/s 661 mmHg 87%
    20:00 +3°C° 0 mm 2 m/s 661 mmHg 86%
    21:00 +3°C° 0 mm 2 m/s 661 mmHg 85%
    22:00 +2°C° 0 mm 2 m/s 660 mmHg 84%
    23:00 +2°C° 0 mm 2 m/s 660 mmHg 82%

    Mâine, 30 Ianuarie, Joi

    Timp Temperatura Precipitaţii Vânt Presiune Umiditate
    00:00 +1°C° 0 mm 2 m/s 660 mmHg 81%
    01:00 +1°C° 0 mm 2 m/s 660 mmHg 80%
    02:00 +1°C° 0 mm 2 m/s 659 mmHg 79%
    03:00 -1°C° 0 mm 2 m/s 659 mmHg 78%
    04:00 -1°C° 0 mm 2 m/s 659 mmHg 78%
    05:00 -1°C° 0 mm 2 m/s 659 mmHg 77%
    06:00 -2°C° 0 mm 2 m/s 659 mmHg 77%
    07:00 +1°C° 0 mm 2 m/s 659 mmHg 70%
    08:00 +2°C° 0 mm 2 m/s 660 mmHg 63%
    09:00 +3°C° 0 mm 2 m/s 660 mmHg 56%
    10:00 +4°C° 0 mm 2 m/s 660 mmHg 52%
    11:00 +5°C° 0 mm 2 m/s 660 mmHg 48%
    12:00 +5°C° 0 mm 3 m/s 659 mmHg 44%
    13:00 +5°C° 0 mm 3 m/s 659 mmHg 45%
    14:00 +5°C° 0 mm 3 m/s 659 mmHg 47%
    15:00 +4°C° 0 mm 3 m/s 658 mmHg 49%
    16:00 +4°C° 0 mm 2 m/s 658 mmHg 57%
    17:00 +2°C° 0 mm 2 m/s 658 mmHg 65%
    18:00 -1°C° 0 mm 2 m/s 657 mmHg 73%
    19:00 -1°C° 0 mm 2 m/s 658 mmHg 72%
    20:00 -1°C° 0 mm 2 m/s 658 mmHg 72%
    21:00 -1°C° 0 mm 2 m/s 658 mmHg 71%
    22:00 +1°C° 0 mm 1 m/s 658 mmHg 72%
    23:00 +1°C° 0 mm 1 m/s 658 mmHg 72%

    Poimâine, 31 Ianuarie, Vineri

    Timp Temperatura Precipitaţii Vânt Presiune Umiditate
    00:00 +1°C° 0 mm 1 m/s 659 mmHg 73%
    01:00 0°C° 0 mm 1 m/s 659 mmHg 73%
    02:00 0°C° 0 mm 1 m/s 659 mmHg 73%
    03:00 0°C° 0 mm 1 m/s 659 mmHg 74%
    04:00 0°C° 0 mm 1 m/s 659 mmHg 73%
    05:00 -1°C° 0 mm 1 m/s 660 mmHg 73%
    06:00 -3°C° 0 mm 2 m/s 660 mmHg 73%
    07:00 0°C° 0 mm 1 m/s 661 mmHg 65%
    08:00 +2°C° 0 mm 1 m/s 661 mmHg 58%
    09:00 +3°C° 0 mm 1 m/s 662 mmHg 50%
    10:00 +4°C° 0 mm 1 m/s 662 mmHg 47%
    11:00 +5°C° 0 mm 1 m/s 662 mmHg 44%
    12:00 +5°C° 0 mm 1 m/s 663 mmHg 42%
    13:00 +5°C° 0.1 mm 1 m/s 663 mmHg 45%
    14:00 +4°C° 0.1 mm 1 m/s 662 mmHg 49%
    15:00 +4°C° 0.1 mm 1 m/s 662 mmHg 53%
    16:00 +2°C° 0.1 mm 1 m/s 662 mmHg 61%
    17:00 0°C° 0.1 mm 1 m/s 663 mmHg 70%
    18:00 -1°C° 0.1 mm 1 m/s 663 mmHg 79%
    19:00 -2°C° 0 mm 1 m/s 663 mmHg 76%
    20:00 -2°C° 0 mm 1 m/s 663 mmHg 73%
    21:00 -3°C° 0 mm 1 m/s 663 mmHg 69%
    22:00 -3°C° 0 mm 1 m/s 663 mmHg 64%
    23:00 -3°C° 0 mm 1 m/s 664 mmHg 59%

    1 Februarie, Sâmbătă

    Timp Temperatura Precipitaţii Vânt Presiune Umiditate
    00:00 -6°C° 0 mm 2 m/s 664 mmHg 54%
    01:00 -4°C° 0 mm 1 m/s 664 mmHg 52%
    02:00 -4°C° 0 mm 1 m/s 664 mmHg 50%
    03:00 -4°C° 0 mm 1 m/s 664 mmHg 48%
    04:00 -4°C° 0 mm 1 m/s 665 mmHg 47%
    05:00 -4°C° 0 mm 1 m/s 665 mmHg 46%
    06:00 -4°C° 0 mm 1 m/s 665 mmHg 45%
    07:00 -3°C° 0 mm 1 m/s 666 mmHg 41%
    08:00 -1°C° 0 mm 1 m/s 667 mmHg 38%
    09:00 +1°C° 0 mm 1 m/s 668 mmHg 35%
    10:00 +2°C° 0 mm 1 m/s 668 mmHg 33%
    11:00 +4°C° 0 mm 1 m/s 669 mmHg 31%
    12:00 +5°C° 0 mm 1 m/s 669 mmHg 29%
    13:00 +5°C° 0 mm 1 m/s 669 mmHg 31%
    14:00 +5°C° 0 mm 1 m/s 669 mmHg 33%
    15:00 +5°C° 0 mm 1 m/s 669 mmHg 36%
    16:00 +3°C° 0 mm 1 m/s 669 mmHg 48%
    17:00 +1°C° 0 mm 1 m/s 669 mmHg 61%
    18:00 -1°C° 0 mm 1 m/s 669 mmHg 73%
    19:00 -2°C° 0 mm 1 m/s 669 mmHg 70%
    20:00 -2°C° 0 mm 1 m/s 670 mmHg 67%
    21:00 -2°C° 0 mm 1 m/s 670 mmHg 64%
    22:00 -2°C° 0 mm 1 m/s 670 mmHg 63%
    23:00 -2°C° 0 mm 1 m/s 670 mmHg 61%

    2 Februarie, Duminică

    Timp Temperatura Precipitaţii Vânt Presiune Umiditate
    00:00 -2°C° 0 mm 1 m/s 670 mmHg 59%
    01:00 -3°C° 0 mm 1 m/s 670 mmHg 58%
    02:00 -3°C° 0 mm 1 m/s 670 mmHg 56%
    03:00 -3°C° 0 mm 1 m/s 670 mmHg 55%
    04:00 -3°C° 0 mm 1 m/s 671 mmHg 54%
    05:00 -3°C° 0 mm 1 m/s 671 mmHg 53%
    06:00 -3°C° 0 mm 1 m/s 671 mmHg 52%
    07:00 -1°C° 0 mm 1 m/s 672 mmHg 49%
    08:00 0°C° 0 mm 0 m/s 672 mmHg 47%
    09:00 +2°C° 0 mm 0 m/s 673 mmHg 44%
    10:00 +4°C° 0 mm 1 m/s 673 mmHg 44%
    11:00 +5°C° 0 mm 1 m/s 673 mmHg 44%
    12:00 +6°C° 0 mm 1 m/s 673 mmHg 44%
    13:00 +6°C° 0 mm 1 m/s 673 mmHg 48%
    14:00 +5°C° 0 mm 1 m/s 673 mmHg 52%
    15:00 +4°C° 0 mm 2 m/s 672 mmHg 55%
    16:00 +3°C° 0 mm 1 m/s 672 mmHg 66%
    17:00 +2°C° 0 mm 1 m/s 672 mmHg 76%
    18:00 0°C° 0 mm 1 m/s 672 mmHg 86%
    19:00 0°C° 0 mm 1 m/s 672 mmHg 87%
    20:00 -1°C° 0 mm 0 m/s 672 mmHg 87%
    21:00 -1°C° 0 mm 0 m/s 672 mmHg 87%
    22:00 -1°C° 0 mm 0 m/s 672 mmHg 85%
    23:00 -1°C° 0 mm 1 m/s 672 mmHg 83%

    3 Februarie, Luni

    Timp Temperatura Precipitaţii Vânt Presiune Umiditate
    00:00 -1°C° 0 mm 1 m/s 671 mmHg 80%
    01:00 -1°C° 0 mm 1 m/s 671 mmHg 78%
    02:00 -2°C° 0 mm 1 m/s 671 mmHg 75%
    03:00 -2°C° 0 mm 1 m/s 671 mmHg 73%
    04:00 -2°C° 0 mm 1 m/s 671 mmHg 69%
    05:00 -2°C° 0 mm 1 m/s 671 mmHg 65%
    06:00 -2°C° 0 mm 1 m/s 671 mmHg 61%
    07:00 0°C° 0 mm 1 m/s 671 mmHg 57%
    08:00 +2°C° 0 mm 1 m/s 672 mmHg 52%
    09:00 +3°C° 0 mm 1 m/s 673 mmHg 48%
    10:00 +5°C° 0 mm 1 m/s 673 mmHg 45%
    11:00 +6°C° 0 mm 1 m/s 673 mmHg 42%
    12:00 +7°C° 0 mm 1 m/s 672 mmHg 39%
    13:00 +7°C° 0 mm 1 m/s 672 mmHg 41%
    14:00 +7°C° 0 mm 1 m/s 672 mmHg 42%
    15:00 +7°C° 0 mm 1 m/s 672 mmHg 44%
    16:00 +5°C° 0 mm 1 m/s 672 mmHg 53%
    17:00 +3°C° 0 mm 1 m/s 672 mmHg 63%
    18:00 +1°C° 0 mm 1 m/s 672 mmHg 73%
    19:00 +1°C° 0 mm 1 m/s 672 mmHg 69%
    20:00 0°C° 0 mm 1 m/s 672 mmHg 65%
    21:00 0°C° 0 mm 1 m/s 672 mmHg 61%
    22:00 0°C° 0 mm 1 m/s 672 mmHg 58%
    23:00 0°C° 0 mm 1 m/s 672 mmHg 54%
    Arată mai mult